Lapse_Rate
7.2 6.2 4.4 4.1 6.4 6.5 6.5 6.5 6.5 6.5 6.5 4.4 3.3 5.1 6.1 5.0 6.4 6.5 2.3 1.9 2.6 3.4 4.5 5.4 5.7 5.7 6.1 5.7 5.4 5.2 5.2 5.7 5.9 6.3 6.3 6.4 6.7 6.6 6.7 7.2 8.6 8.5 8.0 7.7 8.0 8.3 8.2 7.7 7.6
6.6 6.7 6.5 4.9 6.5 6.5 6.5 6.5 6.5 6.5 5.5 3.3 3.8 4.6 6.0 6.5 3.4 4.2 3.8 2.7 3.5 3.7 4.7 5.6 5.6 5.5 5.7 5.5 5.7 5.5 5.4 5.7 5.8 6.1 6.1 6.5 6.3 6.5 6.8 7.4 8.2 9.1 8.4 8.1 8.1 7.8 7.0 7.6 8.0
5.6 6.4 6.2 6.5 6.5 6.5 6.5 6.5 6.5 6.2 3.9 5.0 5.2 4.9 4.7 5.3 4.5 4.6 3.6 3.2 4.0 4.1 4.4 5.2 5.4 5.4 5.3 5.6 5.4 5.6 5.6 5.7 5.8 5.9 6.1 6.1 6.1 6.2 7.0 7.5 7.0 7.3 7.7 7.7 7.6 7.4 7.3 7.2 7.7
6.2 6.0 6.2 6.5 6.5 6.5 6.5 6.5 6.4 6.5 6.1 5.6 5.0 6.5 5.2 4.4 3.5 3.3 4.0 4.1 3.7 3.7 4.6 5.1 5.3 5.3 5.2 5.3 5.5 5.6 5.6 5.9 5.8 5.9 6.0 6.0 5.8 6.1 6.6 6.5 6.1 6.6 7.1 7.2 7.2 6.8 6.4 6.6 6.3
6.4 6.0 6.5 6.5 6.5 6.5 6.5 5.8 4.9 6.5 5.7 5.2 5.0 6.3 5.8 5.8 4.0 4.0 4.1 4.2 4.1 3.8 4.8 5.0 5.2 5.2 5.2 5.2 5.5 5.6 5.6 5.7 5.9 6.1 5.9 5.7 5.8 5.9 6.5 6.9 6.6 6.5 6.7 7.0 7.2 7.3 7.1 7.1 6.3
6.6 6.3 6.5 6.5 6.5 6.5 6.5 4.4 5.2 5.9 5.0 5.0 5.4 6.0 5.7 4.7 4.7 4.6 4.2 4.4 4.9 4.4 4.5 5.2 5.2 5.1 5.2 5.3 5.4 5.5 5.5 5.7 5.8 5.7 5.6 5.4 5.5 5.5 5.9 6.5 7.1 7.2 7.1 7.6 7.2 7.3 7.5 7.0 6.8
6.5 6.5 6.5 6.5 6.5 6.5 6.5 3.9 6.3 6.1 5.7 5.9 3.8 6.5 5.9 5.1 4.9 4.4 4.6 5.2 5.1 4.8 4.2 4.3 5.0 5.0 5.0 5.2 5.4 5.6 5.7 5.7 5.7 5.5 5.4 5.1 5.1 5.3 5.6 6.8 7.5 7.5 7.2 7.1 7.2 7.2 7.2 6.8 6.5
6.9 6.5 6.5 6.5 6.5 6.5 6.0 5.2 4.3 4.7 6.0 3.4 3.4 6.4 6.5 5.7 4.8 4.6 4.9 5.1 5.0 4.7 4.0 3.9 4.3 4.5 4.7 4.9 5.3 5.4 5.6 5.6 5.4 5.2 4.9 4.9 5.0 5.1 5.4 6.8 7.4 7.2 6.9 6.8 6.7 6.9 6.8 6.4 6.0
7.5 6.5 6.5 6.5 6.5 6.5 5.3 6.5 5.1 4.0 3.2 4.5 4.0 4.5 5.0 4.7 4.7 5.0 5.1 5.0 4.6 4.5 4.4 3.9 3.8 4.0 4.1 4.3 5.0 5.5 5.1 4.9 4.8 4.6 4.5 4.1 4.0 4.5 5.3 6.2 7.0 7.3 7.4 6.9 6.9 7.2 6.5 5.8 5.4
6.6 6.5 6.5 6.5 6.5 6.5 6.1 6.2 5.0 5.6 5.9 6.0 4.8 4.8 5.4 5.4 5.0 5.5 5.5 5.3 5.2 4.6 4.3 3.8 3.6 3.7 4.2 4.3 4.2 4.2 4.2 3.8 3.3 3.1 3.4 3.3 3.5 3.9 4.6 6.5 7.7 7.9 7.2 6.7 6.7 6.1 5.2 5.3 4.6
6.7 6.5 6.5 6.5 6.8 5.7 6.1 6.2 4.2 6.1 6.5 5.7 6.8 6.5 5.2 5.7 5.5 5.5 6.1 6.0 5.3 4.8 4.6 3.6 3.3 3.5 3.9 4.3 4.5 4.2 3.4 2.9 2.8 3.0 3.1 3.1 2.8 3.2 3.5 5.1 6.0 6.1 6.2 5.2 5.5 4.7 4.8 4.4 4.2
6.5 6.6 6.7 6.6 6.7 6.2 6.5 5.1 6.1 5.7 5.3 2.9 3.2 5.7 6.0 5.4 5.6 6.0 5.9 6.0 4.9 4.4 4.0 3.5 3.3 3.4 3.8 4.0 4.3 4.1 3.6 3.1 2.6 2.6 3.1 2.5 1.9 2.0 2.2 3.3 4.6 4.7 4.7 3.9 4.2 4.2 4.3 4.4 4.4
6.5 6.5 6.9 7.1 6.9 6.8 5.8 6.2 6.0 5.7 3.4 2.6 4.4 6.5 5.7 5.9 6.0 6.3 6.5 4.9 4.0 4.3 4.1 3.6 3.5 3.5 3.7 3.8 3.8 3.8 3.5 3.0 2.2 2.4 3.0 2.8 2.0 1.3 1.8 2.5 3.8 3.9 4.3 4.0 3.3 3.5 3.6 3.7 4.0
6.6 6.7 6.7 7.0 6.8 6.8 6.5 6.5 5.8 5.3 4.0 4.8 6.8 6.9 6.4 5.9 5.8 6.2 5.9 4.0 4.2 4.3 4.0 3.6 3.6 3.6 3.5 3.6 3.5 3.2 2.8 2.1 2.3 2.4 2.7 3.1 2.5 1.5 1.3 1.5 2.8 3.5 4.5 4.0 3.9 3.5 3.0 3.1 3.6
6.8 6.5 6.5 6.5 6.6 6.5 6.3 6.5 6.5 4.5 6.1 6.7 6.9 6.9 6.2 5.8 6.3 5.9 5.8 3.8 4.5 4.5 3.9 3.8 3.5 3.6 3.5 3.3 3.2 2.8 2.4 2.5 2.4 2.4 3.0 3.3 3.1 2.2 1.4 1.4 2.2 3.4 4.0 4.0 3.6 3.2 3.0 2.6 3.1
6.5 6.5 6.5 6.5 6.5 6.4 6.5 6.5 6.5 5.8 6.1 6.7 6.8 6.8 6.4 5.8 5.4 6.3 5.2 4.3 4.7 4.3 4.1 3.8 4.5 4.0 3.7 3.5 3.5 2.9 2.6 2.2 2.3 2.5 2.9 3.4 3.3 3.2 2.2 1.7 2.1 3.3 3.6 3.6 2.8 2.1 1.4 1.8 2.1
6.5 6.5 6.5 6.5 6.5 6.5 6.5 6.5 6.5 5.7 5.7 6.7 6.8 6.5 6.3 5.8 5.1 5.3 5.3 5.1 4.2 3.8 3.9 4.0 3.9 3.9 4.0 3.4 3.4 2.9 2.6 2.4 2.3 2.5 2.6 3.2 3.4 3.7 3.2 2.9 2.9 3.2 2.8 2.4 2.4 1.3 1.7 1.8 1.7
6.5 6.5 6.5 6.5 6.5 6.5 6.5 6.5 6.5 6.3 5.5 6.5 6.8 6.3 6.2 5.9 4.8 4.7 4.7 4.5 3.9 3.8 4.0 3.9 4.1 4.4 4.1 4.1 3.2 2.8 3.0 3.3 2.6 2.3 2.6 3.3 3.7 4.1 4.0 3.7 3.1 3.0 2.1 1.2 1.4 1.8 1.1 1.5 1.8
6.5 6.5 6.5 6.5 6.5 6.5 6.5 6.5 6.5 6.4 5.5 6.5 6.7 6.4 6.3 6.4 5.0 4.5 4.1 3.6 3.5 4.0 4.3 4.1 4.4 4.4 4.3 4.7 4.1 3.8 3.5 2.5 2.2 2.4 3.5 3.6 3.9 4.0 3.5 3.3 2.8 2.7 1.7 1.7 1.7 1.5 2.1 1.5 0.9
6.5 6.5 6.5 6.5 6.5 6.5 6.5 6.5 6.5 6.5 6.4 6.4 6.7 6.6 6.7 6.6 5.3 4.4 4.3 3.8 3.9 4.3 4.8 4.2 4.7 4.4 4.7 4.7 4.6 4.0 2.6 2.4 3.3 2.7 3.3 3.8 4.0 3.9 3.1 2.8 2.2 2.2 1.6 1.6 1.6 1.9 1.4 1.6 0.7
6.5 6.5 6.5 6.5 6.5 6.5 6.5 6.5 6.5 6.5 6.5 6.5 6.6 6.5 6.5 6.2 5.0 4.7 4.6 4.3 4.2 4.4 4.5 4.5 4.9 4.7 4.8 4.8 4.1 3.6 2.3 2.3 2.8 2.6 2.5 3.0 3.9 4.0 3.9 3.2 2.5 2.1 2.2 1.7 1.2 1.4 2.2 2.0 0.6
6.5 6.5 6.5 6.5 6.5 6.5 6.5 6.5 6.5 6.5 6.5 6.5 6.5 6.4 6.6 6.5 5.8 5.0 5.0 4.6 4.3 4.6 4.6 4.4 4.7 4.7 4.5 4.2 5.1 4.7 4.8 4.1 3.0 2.7 2.1 2.2 3.6 3.4 3.8 3.6 3.1 2.6 2.1 1.6 1.3 1.7 1.5 1.7 2.0
6.5 6.5 6.5 6.5 6.5 6.5 6.5 6.5 6.5 6.5 6.5 6.5 6.5 6.3 6.6 6.7 6.1 5.3 4.6 4.5 5.5 5.3 4.7 4.5 4.6 4.9 4.6 4.4 5.1 4.8 5.1 4.0 2.4 2.3 2.9 2.7 2.6 3.5 3.7 3.7 3.1 2.3 1.9 1.8 1.5 1.1 1.3 1.3 1.7
6.5 6.5 6.5 6.5 6.5 6.5 6.5 6.5 6.5 6.5 6.5 6.5 6.5 6.6 6.4 6.8 6.6 5.6 3.9 4.0 5.1 5.4 4.5 4.4 4.2 4.3 4.1 4.4 3.8 4.2 4.8 3.5 2.7 2.8 3.5 2.9 2.3 2.2 3.1 3.4 3.1 3.0 2.4 1.6 1.5 1.7 1.3 1.0 1.5
6.5 6.5 6.5 6.5 6.5 6.5 6.5 6.5 6.5 6.5 6.5 6.5 6.5 6.7 5.5 6.5 7.1 6.4 4.7 4.6 5.7 5.1 5.0 4.1 4.2 4.2 4.0 4.3 4.2 3.9 3.9 3.9 3.8 3.8 4.1 2.6 2.6 2.0 2.0 2.2 2.0 2.1 2.5 2.7 2.8 1.5 1.3 1.0 1.1
6.5 6.5 6.5 6.5 6.5 6.5 6.5 6.5 6.5 6.5 6.0 5.2 6.2 6.6 5.9 5.1 6.2 6.4 6.0 5.3 7.0 5.8 5.1 3.6 3.8 4.1 3.9 3.8 4.3 4.4 4.2 3.9 4.7 4.4 4.5 3.8 3.9 3.5 2.9 2.9 2.6 2.5 2.8 2.8 2.6 1.8 1.7 1.2 1.1
6.5 6.5 6.5 6.5 6.5 6.5 6.5 6.5 6.5 6.5 6.5 6.4 6.0 6.0 6.0 6.0 5.8 5.5 5.0 5.8 6.8 6.3 4.9 3.9 3.9 4.2 3.9 4.0 4.3 4.1 4.2 4.0 4.5 3.3 4.2 4.1 3.3 3.4 2.8 3.2 2.9 2.8 2.8 2.7 2.3 2.4 2.1 1.6 1.5
6.5 6.5 6.5 6.5 6.5 6.5 6.5 6.5 6.5 6.5 6.5 6.5 6.5 6.2 5.9 5.4 4.9 4.6 4.2 4.7 4.8 5.9 5.1 4.0 4.1 4.4 4.2 3.9 3.7 3.1 3.2 4.0 3.6 2.6 3.3 3.3 3.4 3.0 2.7 2.7 2.7 2.6 2.7 2.7 2.3 2.4 2.4 2.2 2.5
6.5 6.5 6.5 6.5 6.5 6.5 6.5 6.5 6.5 6.5 6.5 6.5 6.5 5.6 4.8 5.0 5.0 4.5 3.9 3.7 4.0 4.3 4.1 3.8 4.4 4.4 4.5 4.2 3.5 3.7 3.3 3.2 2.9 3.1 3.4 3.7 3.7 3.5 3.0 3.1 3.2 3.1 2.7 2.3 2.5 2.9 3.0 3.1 3.8
6.5 6.5 6.5 6.5 6.5 6.5 6.5 6.5 6.5 6.5 6.5 6.5 5.9 4.9 3.6 3.0 3.1 3.0 3.4 3.3 3.3 3.2 3.8 4.0 4.2 4.4 4.2 4.6 4.1 3.8 3.7 3.6 3.4 3.4 3.7 3.7 3.7 3.3 3.6 3.7 3.8 4.0 4.0 3.2 2.6 3.0 3.4 3.2 3.5
Wind_Speed
10 4 3 3 2 2 6 7 3 3 3 5 7 6 10 4 6 5 2 5 12 13 14 19 21 20 19 18 19 20 17 16 17 19 21 21 23 22 21 20 21 23 24 24 25 26 26 27 26
3 3 2 1 3 7 14 7 9 7 4 8 6 5 4 4 3 5 10 7 14 13 16 15 20 20 19 18 18 18 19 17 17 18 21 22 22 21 21 22 21 20 22 24 24 25 25 24 23
6 8 4 4 4 18 12 10 9 4 8 4 5 4 6 8 5 15 3 13 14 10 16 16 19 21 20 18 20 19 19 18 19 20 21 22 21 21 20 22 23 24 23 24 24 23 22 22 21
4 3 2 7 24 33 8 9 9 7 4 2 3 7 2 2 11 7 12 13 13 10 15 19 20 21 20 19 19 19 21 20 20 22 21 21 21 21 20 22 25 24 20 22 22 22 22 22 22
3 3 7 10 31 9 4 8 12 8 7 5 4 8 3 2 3 13 14 11 14 10 15 17 20 21 20 21 20 21 22 22 22 21 21 21 21 21 21 22 23 22 19 18 23 21 22 22 21
5 4 7 21 33 11 6 6 9 8 6 6 5 5 4 3 14 14 11 11 12 11 16 15 19 21 21 20 21 22 23 23 23 21 21 20 21 21 22 20 21 20 19 23 21 21 21 21 20
7 9 21 24 27 4 6 7 8 13 8 5 9 5 4 10 14 12 11 13 13 12 12 12 15 18 21 20 22 23 23 23 23 22 21 20 20 21 21 20 21 19 21 21 20 21 21 20 20
6 8 26 16 23 16 7 7 8 8 6 3 6 7 7 14 15 13 12 13 12 10 8 9 12 14 15 18 22 23 24 23 22 21 23 21 19 19 19 20 21 18 17 21 21 21 20 20 20
3 6 15 36 17 15 6 8 2 2 10 1 8 6 6 21 18 16 14 12 11 10 11 9 11 12 14 15 19 21 21 22 22 23 24 19 16 16 18 20 22 17 18 21 20 19 18 18 19
5 9 23 15 1 10 6 5 9 5 4 3 4 7 20 20 20 19 17 16 15 13 11 9 10 11 14 14 16 16 17 14 14 16 19 18 18 16 14 20 21 21 23 20 19 19 18 20 18
5 8 13 10 21 12 9 6 6 11 8 7 19 20 24 22 19 17 18 16 15 13 9 8 8 11 15 13 14 13 13 14 14 16 17 17 17 17 16 15 16 18 19 16 16 15 17 18 17
6 14 14 12 14 6 9 8 5 12 7 12 20 29 23 22 20 21 18 17 15 14 12 9 9 10 13 14 12 13 12 12 10 13 17 14 12 13 11 11 14 16 15 12 12 14 14 14 13
14 15 13 16 18 13 6 9 10 13 7 17 20 27 25 21 20 18 18 15 14 15 13 11 10 10 13 13 13 13 12 12 11 13 15 16 11 10 12 11 12 14 12 12 12 14 13 12 12
3 12 18 14 19 12 3 2 9 4 12 20 27 26 24 25 25 18 17 14 15 16 14 12 10 10 13 9 11 10 12 12 12 13 14 16 15 13 12 11 10 11 9 11 13 13 12 9 11
8 11 16 12 18 7 3 1 6 7 16 26 25 23 23 22 22 20 19 15 16 15 14 14 11 12 10 8 9 10 11 12 10 11 16 16 17 16 15 12 9 11 10 12 13 11 10 9 7
6 2 9 14 12 6 3 13 4 16 19 25 26 22 23 22 21 19 15 15 15 13 15 12 11 11 9 8 9 10 10 11 10 13 15 16 17 18 16 10 10 10 12 11 10 7 3 3 3
4 6 13 10 14 6 4 2 4 15 21 21 22 20 18 16 15 16 15 16 14 14 13 12 11 13 11 8 9 9 11 10 11 14 15 16 18 18 15 11 11 12 11 10 7 2 3 2 2
6 8 9 11 11 21 4 3 7 13 18 20 18 16 16 15 15 17 17 15 13 13 12 11 9 10 11 8 6 6 6 7 12 11 13 16 16 17 14 11 10 12 8 4 4 3 2 2 2
3 5 14 7 8 4 3 6 7 9 14 16 16 15 16 16 9 15 14 14 13 11 13 12 11 11 9 8 8 5 6 3 3 9 14 16 16 17 14 10 10 11 5 5 6 3 3 1 2
12 9 10 3 17 5 8 5 4 9 9 18 21 16 17 14 11 14 14 14 16 15 13 14 12 12 9 8 7 3 4 2 3 8 12 16 16 16 14 12 8 10 4 5 5 4 3 2 3
8 13 14 7 11 6 5 5 1 2 6 7 13 17 16 18 16 16 16 16 16 16 16 15 14 13 11 8 5 3 4 4 3 2 3 8 16 17 15 15 13 10 7 5 5 5 6 4 2
4 14 18 14 6 3 4 2 3 3 9 7 10 11 14 14 11 13 15 15 19 16 14 14 14 14 11 11 10 11 9 6 4 4 3 5 14 15 17 16 15 12 9 5 5 6 3 4 4
2 7 12 10 7 5 2 2 2 8 6 10 6 11 15 17 15 14 14 15 13 14 15 13 13 13 12 13 12 9 8 4 3 3 7 6 8 14 16 16 14 10 9 7 6 5 5 3 3
5 8 8 4 4 2 3 2 4 7 15 19 16 13 14 15 15 12 8 10 10 12 16 17 15 14 13 13 10 9 7 7 5 5 6 5 3 4 11 13 13 13 10 6 7 8 6 6 4
0 4 2 3 3 1 8 4 8 4 9 16 17 17 12 13 15 14 12 13 14 12 14 13 17 15 15 14 13 13 11 10 10 9 8 7 5 3 7 9 7 6 10 12 11 6 6 6 5
2 2 1 5 5 3 2 7 6 10 10 9 15 14 13 12 15 18 17 12 14 15 15 15 15 15 15 16 15 13 12 9 9 10 7 7 7 6 8 10 11 12 13 12 12 4 5 5 6
2 3 2 4 3 4 5 6 8 3 7 13 15 18 19 19 14 15 14 14 14 15 18 15 15 14 13 15 13 12 11 11 10 8 6 6 5 5 7 11 8 10 11 12 9 6 7 5 5
4 4 3 1 4 4 1 4 5 4 11 11 14 17 17 17 16 13 14 16 15 16 15 14 15 17 14 14 12 11 11 10 9 8 9 8 7 6 7 8 8 7 9 10 8 6 6 7 7
1 2 1 1 1 2 0 5 5 6 5 13 14 12 10 12 14 13 14 14 15 14 13 13 13 13 13 14 13 11 10 9 7 9 9 9 8 9 9 9 9 9 9 8 8 9 8 9 10
6 7 5 3 2 2 2 5 1 7 5 4 7 5 5 9 13 13 14 13 13 14 12 11 11 12 10 10 12 12 11 11 11 10 9 8 9 7 9 8 9 9 9 8 10 10 9 10 11
Wind_Direction
290 328 63 11 143 103 218 229 201 215 160 228 143 147 178 136 166 208 147 155 132 146 155 161 159 156 150 143 144 139 131 130 130 129 125 121 117 115 112 112 111 108 104 104 102 100 101 99 96
287 235 87 15 186 203 226 183 186 202 200 121 85 102 116 174 122 133 135 170 143 145 147 159 158 154 146 146 146 138 131 131 133 132 127 122 119 117 118 113 107 109 110 106 105 105 103 101 99
320 228 157 204 203 226 217 183 190 211 162 158 115 22 142 160 135 152 224 151 140 140 141 153 156 152 143 142 140 138 134 132 130 130 125 120 121 121 116 115 108 106 106 110 111 108 106 102 98
277 175 167 221 218 230 161 179 171 147 251 281 146 118 71 242 145 161 143 142 133 132 141 149 150 145 142 141 141 139 135 135 131 127 128 125 122 125 120 110 104 104 111 115 116 112 109 101 99
241 205 195 220 236 220 201 180 161 162 175 161 180 160 95 103 128 137 144 139 139 133 141 148 147 140 141 141 144 139 134 132 132 130 125 126 128 126 127 113 110 109 114 119 118 115 112 106 106
235 200 213 212 229 215 198 179 167 159 166 147 90 109 131 132 145 148 140 134 142 135 134 151 148 143 142 141 141 138 135 134 132 126 125 129 130 129 127 121 115 115 124 117 117 117 113 109 109
233 237 220 217 233 222 185 139 174 187 139 206 141 106 125 155 155 143 137 139 140 131 128 136 146 143 139 139 141 139 136 134 131 128 129 129 129 130 130 129 120 117 122 123 124 121 116 114 113
287 210 220 229 223 233 185 187 155 161 192 109 140 161 163 162 151 138 134 138 140 132 125 126 130 131 136 137 140 140 137 131 127 126 127 129 129 130 132 128 117 118 121 126 123 121 122 121 116
257 243 240 218 217 203 180 183 179 101 132 159 168 180 179 147 144 145 144 143 141 142 140 124 118 117 120 124 136 133 127 123 126 127 131 127 127 131 137 128 121 122 123 126 123 123 117 110 107
243 261 218 234 277 178 196 175 156 125 137 106 102 114 136 152 151 155 159 155 154 147 147 129 123 123 122 121 120 121 119 120 120 125 125 123 125 127 129 129 129 122 115 115 121 121 118 120 114
275 248 247 239 269 181 190 185 206 138 190 184 157 152 155 155 158 157 162 159 153 151 147 133 126 122 127 133 131 131 125 121 121 126 127 125 120 121 123 119 114 108 114 108 118 122 124 124 124
227 268 292 261 274 271 185 166 199 187 192 152 157 159 157 162 165 163 162 160 155 157 150 138 133 127 132 137 142 144 137 137 132 133 134 129 123 118 119 119 120 115 116 110 127 132 131 125 127
224 237 292 296 257 288 273 190 192 207 167 152 160 160 162 160 163 160 161 154 159 158 156 148 142 139 143 146 149 152 151 148 142 140 144 139 133 128 131 129 129 124 114 118 123 135 130 130 134
251 226 278 271 247 267 249 223 154 199 155 148 161 165 165 166 163 157 162 157 166 162 159 151 147 143 144 152 152 148 148 144 144 145 152 150 145 138 134 133 136 132 127 128 128 141 137 141 142
238 239 282 252 228 264 252 211 203 138 171 157 166 166 167 168 164 169 169 161 164 166 158 159 151 149 148 147 142 147 146 149 149 150 158 157 155 147 143 140 141 143 135 127 119 125 135 129 129
218 339 260 221 199 229 212 191 215 154 170 169 169 168 166 166 165 166 162 162 165 161 166 158 156 154 148 150 149 149 147 150 154 155 160 164 164 158 147 143 145 148 139 135 124 123 99 116 141
153 266 233 177 189 241 162 168 335 186 176 175 170 165 160 153 155 164 165 169 165 162 160 159 157 161 160 146 143 137 151 153 161 162 165 171 167 165 156 154 154 151 144 141 137 93 112 146 138
156 237 253 202 167 227 90 0 325 204 175 172 169 159 163 152 160 164 166 164 165 158 158 163 162 163 160 152 134 126 148 159 161 170 173 175 172 172 167 165 163 161 143 137 129 128 79 129 138
47 305 295 182 131 270 23 18 313 241 173 163 170 157 164 166 151 158 157 160 157 159 161 165 166 169 161 166 161 158 173 151 159 172 178 178 180 182 178 180 168 171 157 174 154 124 130 106 131
256 281 274 201 154 153 331 321 309 199 183 170 172 164 162 158 147 155 160 168 173 168 172 171 176 172 173 175 177 159 144 148 165 175 179 183 186 187 173 170 171 171 149 152 162 141 126 115 164
253 240 240 155 134 121 301 341 76 108 143 171 190 166 167 168 165 167 168 177 175 178 178 176 177 177 176 169 132 104 93 78 107 179 166 185 183 183 179 179 171 174 170 174 176 163 161 160 182
220 259 166 133 127 115 87 292 102 192 161 163 190 176 173 178 176 173 173 178 187 185 180 180 179 177 175 161 173 171 177 172 182 161 168 171 188 187 190 189 184 184 179 177 183 178 162 138 173
316 47 90 93 82 114 90 296 209 183 190 200 201 192 185 187 180 179 181 184 186 181 186 183 180 179 174 177 183 183 176 158 140 145 171 179 188 193 194 191 186 183 184 188 180 165 176 174 155
180 94 85 61 84 61 108 66 266 183 175 195 199 196 192 188 189 178 173 163 177 188 192 188 182 180 170 177 168 166 187 157 150 169 184 186 184 187 197 196 191 192 189 184 193 191 188 189 186
19 2 48 50 50 105 155 196 238 214 187 187 192 190 188 185 191 195 175 182 184 193 191 185 185 184 175 182 185 186 183 179 181 192 191 180 183 186 202 183 186 188 196 199 195 187 197 193 197
113 76 234 156 159 150 198 243 249 222 210 179 178 183 186 191 188 199 201 192 193 198 197 184 183 184 183 186 194 193 192 192 197 202 191 193 196 199 181 196 194 197 198 201 197 189 200 190 211
290 303 239 105 143 137 201 262 289 203 225 177 175 182 193 197 192 188 187 194 200 209 207 194 185 187 191 193 196 192 186 191 201 184 177 184 172 182 184 191 197 201 202 199 188 205 213 192 209
172 307 337 1 127 234 215 288 240 233 210 199 190 187 193 193 195 190 185 191 195 206 205 195 189 189 192 193 194 190 187 188 189 176 185 184 187 183 185 193 194 198 203 195 188 207 211 206 224
115 307 326 138 112 200 320 274 216 262 245 211 206 203 188 189 200 194 193 196 198 196 192 197 186 190 193 190 189 183 175 179 182 198 187 194 194 198 198 199 202 205 203 197 198 215 212 211 232
175 188 162 115 230 20 11 294 341 264 262 228 239 222 211 193 193 193 194 188 190 190 188 184 178 181 182 178 183 188 188 185 190 202 197 195 202 193 208 202 208 216 221 210 208 218 220 217 228